Wind_Speed
18 18 17 17 17 15 12 11 11 10 9 8 7 7 6 6 5 5 5 5 6 7 6 5 6 7 8 7 7 6 5 5 5 5 6 5 5 5 4 4 5 5 6 6 7 8 8 9 10 10 11 11 12 11 12 13 13 13 13 15 14 14
18 18 18 17 16 14 12 12 11 11 10 8 8 8 8 7 6 6 6 6 6 6 6 6 6 7 8 8 7 6 5 5 5 5 5 5 5 5 5 4 4 4 5 5 6 7 8 9 9 10 11 11 11 11 12 13 13 12 13 15 15 14
18 18 17 17 15 14 13 12 12 11 10 9 9 9 9 8 7 7 7 6 6 6 6 5 5 7 7 7 6 6 5 5 4 4 4 4 4 4 4 4 4 4 4 5 6 7 8 9 10 10 11 11 11 12 13 13 13 13 14 14 15 15
18 17 17 17 15 14 13 13 12 12 11 10 10 10 9 8 7 7 7 7 7 7 6 5 5 6 7 6 5 5 4 3 2 2 3 3 3 3 3 4 4 4 4 5 6 7 8 9 10 10 11 11 11 12 12 13 13 14 14 14 15 15
16 16 16 16 15 14 13 13 13 12 11 10 10 10 9 8 8 8 8 8 8 7 6 5 5 6 6 4 4 3 2 1 1 1 2 2 2 3 3 3 4 4 4 5 5 6 7 8 9 10 11 11 11 11 12 12 12 13 14 14 14 15
14 15 15 16 15 14 14 14 13 12 11 11 11 11 10 9 9 10 9 9 8 7 6 5 5 5 5 4 3 2 1 0 0 0 1 1 1 2 2 3 4 4 5 5 5 6 7 8 9 10 11 11 11 11 11 12 12 13 14 13 14 15
14 14 15 15 15 14 14 14 14 13 12 12 12 12 10 10 11 11 10 10 9 8 6 5 5 5 4 3 1 1 1 1 1 1 1 1 2 2 2 3 4 5 6 6 7 7 7 8 9 9 10 11 11 11 11 11 12 12 13 13 13 14
13 13 14 14 15 15 15 14 14 13 13 13 13 12 11 11 12 12 11 10 9 8 6 6 5 5 4 2 1 2 2 2 1 1 2 2 2 2 3 4 5 6 7 7 7 7 7 7 8 8 8 9 9 9 10 10 10 10 11 11 12 13
12 13 13 14 14 14 14 13 13 13 13 13 13 12 11 12 13 12 12 11 9 8 6 6 5 4 3 2 2 2 2 2 2 2 2 2 2 3 4 5 5 5 6 6 6 6 6 6 7 7 7 8 8 8 8 8 8 9 10 11 12 13
12 13 14 14 14 13 13 12 13 13 13 13 13 13 13 13 13 13 12 11 10 8 7 6 5 4 3 2 3 3 3 2 2 2 2 3 3 4 5 6 5 4 4 4 5 5 5 6 6 6 6 6 6 6 7 8 8 8 10 11 12 13
13 14 14 13 13 12 12 13 13 13 13 13 13 14 14 14 14 13 12 11 10 8 7 6 5 4 3 3 4 4 4 3 3 3 3 3 4 5 5 5 5 4 4 3 4 4 5 5 5 5 5 5 6 6 7 7 8 9 10 12 13 14
14 14 14 12 12 12 12 12 13 13 13 14 14 15 15 15 14 13 13 11 10 8 7 6 6 5 4 4 5 5 4 4 4 4 4 4 5 5 5 4 4 4 4 3 3 4 4 4 4 5 5 5 6 6 7 8 8 9 11 13 14 15
16 15 13 12 12 12 12 11 12 13 14 15 15 16 15 14 14 13 12 11 9 8 7 7 6 5 5 6 7 7 6 5 5 5 4 4 5 4 3 3 3 2 2 2 2 3 3 3 4 5 5 6 7 8 8 9 10 11 13 14 16 17
17 15 13 12 13 12 11 12 13 14 14 15 15 15 15 14 14 13 12 11 9 8 8 7 6 6 6 7 8 8 7 5 5 5 4 4 4 3 3 3 2 1 1 2 2 3 3 4 5 6 7 8 9 10 10 11 12 13 14 16 17 19
17 15 13 12 12 12 12 13 15 15 14 15 15 14 14 14 13 13 12 10 9 8 8 7 6 7 7 8 8 8 7 6 5 5 5 4 3 3 3 2 1 0 1 2 3 4 5 6 7 8 9 11 11 12 12 13 14 15 16 18 19 20
17 16 14 12 13 14 14 13 14 15 15 15 14 14 14 14 13 13 12 10 9 9 8 7 7 8 8 8 8 8 7 6 6 6 5 4 4 3 3 3 2 0 1 3 4 5 7 8 9 10 11 12 13 14 15 15 16 17 18 20 21 22
18 17 14 13 13 14 14 13 14 14 15 15 15 15 14 14 14 13 11 10 10 9 7 7 8 9 10 9 8 8 7 7 7 7 6 5 4 4 3 2 1 1 2 4 6 7 8 10 11 12 13 14 15 16 17 18 18 19 20 21 22 23
19 17 14 13 13 14 15 14 14 14 15 16 16 15 14 14 14 12 11 11 10 9 8 9 10 10 10 9 8 8 7 7 7 7 6 6 5 4 3 2 2 3 4 6 8 9 10 11 13 14 15 16 17 18 19 19 20 20 21 22 22 23
19 16 14 15 15 16 15 14 15 15 16 16 16 15 15 15 14 12 11 11 10 9 10 11 11 11 10 9 8 8 7 7 7 7 7 6 4 4 3 3 3 4 6 7 9 11 12 12 14 15 16 17 18 19 19 20 21 21 22 22 23 24
19 17 18 18 16 16 15 14 15 15 15 16 16 16 16 16 15 13 11 11 12 11 11 11 11 10 9 8 7 7 7 8 8 7 6 5 5 4 3 4 5 5 7 8 10 11 12 13 15 16 17 18 18 19 20 20 21 21 22 23 24 24
19 18 19 17 14 15 15 14 14 14 15 16 17 18 18 17 16 14 12 12 13 12 11 11 11 10 9 8 8 7 8 8 8 7 6 6 5 5 5 5 6 7 8 9 10 12 13 14 16 17 17 18 19 19 20 21 21 22 23 23 24 25
20 19 19 17 15 15 15 15 15 15 16 17 19 19 19 17 15 15 13 12 12 12 11 11 10 10 9 8 8 8 8 9 8 7 7 6 6 6 6 6 7 8 9 10 11 13 14 15 16 17 17 18 18 19 19 20 22 22 23 24 24 25
20 20 19 17 15 15 16 16 17 16 17 19 20 19 19 18 16 15 13 12 12 11 11 11 11 10 9 8 8 9 8 8 7 7 7 6 6 7 7 7 8 9 10 11 13 14 15 16 17 17 17 18 18 19 19 20 21 22 23 24 24 24
19 18 18 17 14 14 16 18 19 19 19 20 19 19 18 17 15 13 11 12 12 11 11 11 11 11 9 9 9 9 8 7 7 7 7 7 7 7 7 8 9 10 12 13 14 15 15 15 16 16 17 17 17 18 19 20 21 22 23 23 23 23
19 16 16 17 17 16 17 19 19 19 18 19 18 18 17 15 13 12 12 13 12 12 11 11 11 10 10 10 9 8 8 8 8 8 8 7 7 7 8 9 10 12 13 15 15 16 15 15 15 15 16 16 15 17 18 20 21 21 21 22 22 22
20 16 14 15 18 18 19 20 19 18 18 17 17 15 12 12 14 14 14 14 12 12 11 11 11 10 9 9 9 9 8 8 8 8 7 7 8 9 10 11 12 13 14 15 15 15 15 15 15 15 16 16 15 16 18 19 20 20 21 21 21 22
15 14 15 15 17 17 17 17 17 18 18 15 14 12 8 9 13 14 13 13 12 12 12 11 11 10 10 10 9 9 8 8 8 7 8 8 9 10 11 12 13 14 14 14 15 15 15 15 15 15 16 16 16 17 18 19 19 20 20 21 22 22
13 13 14 15 16 16 14 14 15 17 16 14 14 12 9 10 12 12 11 11 12 13 12 12 11 10 10 10 10 9 9 8 8 8 8 9 10 12 12 13 13 13 13 13 14 14 14 14 14 15 15 16 16 17 18 18 19 20 21 21 22 22
16 14 13 14 16 14 13 13 15 15 14 13 13 12 11 11 12 12 11 12 13 13 13 12 11 10 11 10 10 10 9 9 8 9 9 10 12 13 13 13 13 12 12 12 12 12 12 13 13 14 14 15 16 16 17 18 19 20 21 22 22 23
17 14 12 13 13 13 13 14 14 13 13 13 13 13 12 12 13 13 12 12 13 14 14 12 11 10 11 11 10 10 10 9 9 10 11 12 13 13 13 12 12 11 11 11 11 11 11 11 12 13 14 15 15 16 17 18 19 20 20 21 22 23
19 15 13 12 12 13 14 14 14 14 14 13 13 14 14 14 14 13 12 12 13 14 14 13 12 11 11 11 11 11 11 11 11 11 12 13 14 13 12 11 10 10 9 9 9 10 10 11 12 13 14 14 15 16 17 18 18 19 19 20 21 22
19 16 14 13 13 14 15 15 16 15 15 14 14 16 17 16 15 13 12 13 14 15 15 14 13 12 11 12 12 12 12 12 12 13 13 14 14 12 11 9 9 8 8 8 9 9 10 11 12 13 13 14 15 16 16 17 17 18 19 19 20 21
19 17 15 14 14 15 15 16 17 16 15 15 16 18 18 16 14 13 13 14 15 15 15 15 15 14 13 12 13 13 13 13 13 13 13 14 13 11 9 8 8 8 8 8 9 10 11 11 12 12 13 14 15 15 16 16 17 17 18 18 19 20
19 17 15 15 16 16 16 17 18 16 16 17 18 19 18 16 14 14 14 14 15 15 15 16 16 15 14 13 14 13 13 13 13 13 14 13 11 9 8 8 8 8 8 8 9 10 11 11 12 12 13 14 15 15 16 16 16 17 17 17 17 18
19 17 17 17 18 17 17 18 18 17 19 20 20 20 18 15 14 14 14 14 15 15 16 16 16 16 15 15 14 14 13 13 13 14 13 12 10 9 8 8 8 8 8 9 10 10 11 11 12 12 13 14 15 15 15 16 16 16 15 16 16 16
19 17 17 17 18 19 19 19 20 20 21 21 21 19 16 15 14 13 13 14 15 15 15 15 16 16 15 15 14 13 13 14 14 13 12 11 10 9 9 8 8 8 8 9 10 10 10 11 12 13 13 14 15 15 15 15 15 15 15 15 15 15
20 18 15 16 18 19 21 22 21 21 21 21 19 18 16 15 13 13 14 14 14 14 14 14 14 14 14 13 13 13 13 13 13 12 11 11 10 9 9 8 8 8 9 9 10 10 10 11 12 12 13 14 14 14 15 15 14 14 14 15 14 13
Wind_Direction
211 204 202 206 213 215 215 216 220 224 225 223 224 228 234 242 250 256 261 268 275 280 288 305 320 326 329 331 331 332 330 332 334 333 328 326 325 324 327 332 332 328 325 323 325 329 331 333 333 331 330 330 330 330 329 329 328 329 325 317 322 331
211 205 202 206 211 212 213 216 219 223 223 221 224 229 234 241 246 253 259 263 269 277 286 300 318 325 326 327 326 324 320 319 324 322 323 323 320 323 329 337 339 333 328 327 327 329 333 334 333 332 330 332 333 330 328 329 329 328 320 316 327 337
211 206 205 208 210 210 213 216 218 222 222 221 225 229 235 242 247 254 259 263 267 272 280 295 314 321 321 324 323 319 315 315 321 322 323 323 320 326 333 338 336 331 330 331 331 331 334 334 332 331 330 333 332 328 327 325 326 323 316 321 333 337
213 209 208 210 211 211 214 217 219 221 222 223 228 231 237 243 249 258 262 265 264 266 274 291 309 316 316 318 320 312 309 315 322 328 324 326 330 328 331 336 331 333 336 332 331 328 330 330 329 328 329 332 329 326 324 322 324 319 318 330 337 338
216 214 212 213 213 213 214 218 220 222 224 225 230 232 236 242 249 254 258 261 261 263 272 288 306 314 313 314 316 305 300 320 333 342 335 341 340 327 330 334 329 334 335 324 322 320 322 323 323 326 328 329 328 327 324 323 324 321 324 336 339 339
216 217 217 216 215 214 216 220 221 223 226 227 230 232 232 238 246 251 253 257 258 260 266 283 301 307 306 309 310 290 220 147 114 47 317 339 328 317 324 327 325 330 329 322 321 322 323 323 323 328 330 330 331 330 328 327 328 327 328 335 342 343
213 217 219 218 216 216 218 221 223 224 227 228 229 230 230 236 245 250 253 255 256 256 261 278 293 299 299 301 289 221 173 155 161 225 254 304 314 309 313 314 321 324 323 322 322 326 326 325 328 332 332 332 334 333 332 331 330 330 329 338 347 346
212 218 219 218 218 218 220 223 226 227 228 229 230 231 231 237 244 248 251 253 255 257 261 276 289 296 296 283 218 197 175 155 188 248 269 299 312 302 304 310 319 323 323 320 320 326 331 334 339 343 340 339 340 338 338 334 334 332 333 348 353 346
214 219 219 220 221 221 223 226 229 230 229 228 229 230 231 236 242 245 249 251 253 255 259 274 284 287 289 253 202 203 188 180 216 244 274 296 306 305 306 313 319 323 323 321 325 335 347 354 354 355 349 346 347 344 340 335 337 334 334 351 354 346
218 220 220 221 224 224 225 227 229 230 229 229 230 230 231 235 240 243 246 248 250 250 255 267 272 268 267 234 210 219 210 211 228 240 268 292 304 310 314 319 325 331 335 337 343 353 3 4 359 359 356 352 350 345 338 334 337 334 332 346 348 343
223 222 222 223 224 224 223 225 227 228 229 230 231 230 232 234 237 241 243 244 245 244 250 257 259 256 247 234 228 234 235 238 246 251 267 288 303 313 321 327 334 335 346 353 352 2 8 4 2 7 2 353 346 341 337 334 335 334 331 338 341 339
226 226 226 223 222 221 220 221 223 224 227 229 230 229 230 233 235 238 240 240 241 243 249 250 249 250 244 239 237 241 247 247 248 256 269 292 306 315 322 329 331 327 340 356 359 11 9 3 4 5 357 345 338 333 331 330 331 331 330 332 334 334
229 230 227 219 216 215 213 215 218 221 226 228 229 228 228 231 234 236 239 240 241 244 248 247 245 250 253 245 239 244 249 247 246 256 270 291 302 308 318 321 321 328 360 7 9 20 8 359 354 347 342 336 331 327 326 326 327 328 327 328 330 329
233 233 225 217 211 208 209 212 215 218 224 227 227 228 228 231 234 235 238 237 238 241 241 243 247 253 257 245 238 242 245 246 251 259 271 286 295 302 311 310 316 24 45 22 17 13 358 350 342 335 332 328 325 324 323 323 323 324 324 325 325 325
236 232 223 216 209 208 213 214 217 219 222 226 227 226 227 228 231 232 233 232 231 233 233 236 247 252 250 240 235 237 239 245 253 259 268 275 280 285 284 271 248 39 25 10 1 351 343 339 333 328 324 320 319 319 320 320 321 322 322 323 322 321
237 233 222 215 214 215 217 217 222 226 226 228 228 226 226 225 228 230 228 227 228 228 229 236 247 249 243 235 232 235 239 243 249 256 259 254 254 256 247 231 214 232 343 344 335 330 331 327 323 319 315 314 315 317 319 321 322 322 321 320 319 318
237 235 225 219 222 223 222 222 226 232 235 233 230 227 225 225 227 230 228 228 228 224 231 243 248 244 237 232 232 236 239 240 247 253 245 234 236 239 229 225 233 291 320 325 320 320 321 318 315 313 313 315 317 318 319 321 320 319 319 318 317 317
235 235 230 224 226 225 226 231 233 236 241 239 235 232 230 229 229 229 230 230 226 223 234 243 242 237 232 232 235 236 237 242 248 244 232 227 229 231 234 250 275 300 314 319 313 313 314 312 312 312 314 316 316 317 317 318 318 317 317 317 316 316
236 235 232 228 226 228 230 237 239 236 241 242 239 237 234 232 229 227 228 226 223 226 233 235 234 231 230 231 234 234 238 243 240 229 225 228 231 233 248 267 285 300 308 311 307 308 310 310 310 312 313 314 315 315 316 316 317 317 316 316 316 316
240 237 234 229 227 236 239 238 240 237 239 241 239 238 236 233 231 228 224 217 218 225 227 225 225 223 223 224 227 230 234 235 227 222 227 234 239 248 262 275 285 295 299 301 303 305 307 309 310 312 313 313 314 315 315 315 315 315 316 316 317 318
243 242 238 231 224 235 242 239 239 236 235 237 237 237 235 231 225 219 214 211 216 222 220 218 215 215 215 215 221 228 229 227 224 223 227 234 246 257 267 277 284 289 294 298 301 302 304 307 308 310 312 313 315 315 315 314 315 316 317 318 319 319
242 241 237 232 225 230 236 237 237 236 235 235 235 237 238 233 221 212 208 209 216 217 217 217 214 213 214 215 224 231 227 224 224 225 228 237 249 258 267 277 285 290 295 299 301 303 304 306 307 308 311 313 314 314 314 315 316 318 319 320 319 319
239 239 235 230 229 232 235 238 238 237 237 236 235 237 240 234 220 210 202 206 214 212 214 216 214 215 216 221 230 232 227 223 223 225 231 242 250 262 273 280 287 292 296 299 301 303 305 306 309 310 312 314 313 313 315 316 318 320 319 319 318 317
239 236 233 228 228 234 237 237 235 234 236 238 236 236 238 231 219 208 198 208 216 211 208 209 210 215 217 224 231 231 229 226 225 227 233 244 254 265 275 281 288 294 298 301 302 304 305 307 310 313 316 318 317 316 317 319 319 318 317 316 316 317
243 231 222 220 221 228 230 228 230 233 235 234 233 232 232 229 223 214 206 211 215 209 205 205 207 213 218 224 227 225 224 223 223 228 235 244 253 262 272 280 289 296 300 302 303 304 306 308 311 313 316 319 319 317 317 319 317 315 315 315 317 318
240 227 214 216 221 222 222 224 228 232 231 227 229 229 219 216 219 216 213 210 208 207 206 206 209 215 221 221 220 217 216 218 220 226 234 243 254 265 276 284 291 297 300 302 303 305 308 311 312 313 315 317 317 316 315 315 314 315 316 316 318 319
233 215 212 219 221 220 221 224 228 232 234 233 237 238 220 208 211 212 214 207 203 207 207 210 215 219 221 216 213 213 212 215 219 227 240 253 266 276 282 288 293 297 299 301 304 307 309 310 312 313 315 316 315 313 312 313 314 315 316 318 320 321
235 219 220 218 215 218 224 227 229 233 239 242 241 238 223 210 210 214 213 205 204 208 209 214 219 222 220 215 212 212 213 218 227 240 255 270 279 283 287 291 295 298 300 302 303 305 306 308 311 313 314 313 312 311 311 312 314 316 319 321 321 322
243 234 225 212 212 221 228 230 232 234 237 241 241 234 219 211 215 216 210 205 206 208 212 217 221 223 220 217 217 217 221 230 241 256 268 279 284 286 290 294 298 300 300 299 299 300 302 306 309 310 310 309 309 310 312 314 317 320 322 322 323 324
246 241 224 214 220 228 232 232 231 231 232 235 237 231 221 216 216 215 210 209 209 210 215 218 222 225 222 223 225 227 234 244 255 267 276 284 287 289 293 297 299 297 295 293 293 298 302 305 306 306 307 308 310 312 315 318 321 322 322 323 324 324
247 243 229 224 231 233 234 231 225 228 231 232 230 221 217 217 217 216 214 214 214 215 217 219 224 227 227 231 233 237 245 253 264 274 281 286 288 291 294 295 294 290 290 292 296 301 304 305 305 306 307 310 313 316 319 320 320 321 323 323 323 323
244 240 234 233 234 233 235 231 227 229 231 229 221 213 214 217 218 219 219 218 219 221 222 225 228 230 233 236 239 245 252 261 271 278 284 288 288 289 291 290 289 290 293 297 300 303 304 305 307 308 311 315 317 320 320 320 321 322 323 323 323 324
242 237 238 239 236 235 235 232 228 224 223 222 215 212 215 218 218 221 222 221 222 225 229 230 231 234 237 241 246 253 260 268 275 280 284 285 284 284 287 288 290 293 295 298 301 304 306 308 310 313 316 319 320 321 321 322 323 323 323 324 325 326
240 239 243 243 239 237 235 230 226 219 215 216 213 214 216 216 221 224 223 222 224 229 235 236 235 237 241 249 255 261 266 271 276 280 281 279 278 282 286 287 288 290 293 298 302 306 309 311 314 318 320 321 322 323 323 324 323 323 324 325 326 326
240 245 248 247 240 236 229 223 221 217 214 214 214 216 216 218 223 224 222 223 226 232 238 239 238 239 246 255 261 264 267 272 276 276 275 274 277 281 280 279 281 286 292 299 303 306 309 313 317 319 321 322 323 324 324 323 323 324 325 327 327 327
237 243 246 243 233 228 222 217 217 217 216 217 218 218 218 222 225 223 225 228 232 237 240 239 239 242 250 256 259 262 266 271 272 270 270 272 275 273 271 272 277 285 294 299 302 305 309 314 317 319 321 322 324 324 323 322 323 325 327 328 328 329
232 237 235 225 219 219 217 216 218 218 218 219 219 220 221 224 225 225 231 237 240 242 241 240 241 244 249 252 256 262 267 267 266 266 269 270 268 265 265 270 276 285 293 296 300 304 309 312 315 318 321 323 323 322 322 323 325 328 329 329 330 332
Height
3187 3187 3188 3188 3189 3190 3192 3193 3194 3194 3195 3195 3195 3195 3196 3196 3197 3197 3197 3198 3198 3198 3198 3198 3198 3198 3197 3197 3197 3196 3196 3196 3196 3196 3196 3196 3196 3196 3196 3196 3196 3196 3196 3196 3196 3195 3195 3194 3194 3193 3193 3192 3191 3191 3190 3190 3190 3189 3188 3186 3185 3184
3186 3186 3186 3187 3188 3190 3191 3192 3193 3193 3194 3194 3194 3195 3195 3195 3196 3197 3197 3197 3198 3198 3198 3198 3198 3198 3197 3197 3197 3196 3196 3196 3195 3195 3196 3196 3196 3196 3195 3195 3195 3195 3195 3195 3195 3195 3194 3194 3193 3193 3192 3191 3191 3191 3190 3190 3189 3189 3187 3185 3184 3184
3185 3185 3186 3187 3188 3189 3190 3191 3192 3193 3193 3194 3194 3194 3194 3195 3195 3196 3197 3197 3198 3198 3198 3198 3197 3197 3197 3196 3196 3196 3196 3195 3195 3195 3195 3195 3195 3195 3195 3195 3195 3194 3194 3194 3194 3194 3194 3193 3193 3192 3192 3191 3191 3191 3190 3190 3189 3188 3185 3184 3184 3183
3184 3184 3185 3186 3187 3189 3190 3190 3191 3192 3192 3193 3193 3194 3194 3194 3195 3196 3196 3197 3197 3197 3197 3197 3197 3197 3196 3196 3196 3195 3195 3195 3195 3195 3195 3195 3195 3195 3195 3195 3194 3194 3194 3194 3194 3194 3194 3193 3193 3192 3192 3191 3191 3191 3190 3189 3188 3187 3184 3183 3184 3183
3183 3184 3185 3186 3187 3188 3189 3190 3190 3191 3192 3192 3193 3193 3194 3194 3194 3195 3195 3196 3196 3196 3196 3196 3196 3196 3196 3195 3195 3195 3195 3195 3195 3195 3195 3195 3195 3195 3195 3194 3194 3194 3194 3193 3193 3193 3193 3193 3192 3192 3191 3191 3191 3190 3190 3189 3188 3186 3184 3183 3183 3182
3182 3183 3184 3185 3186 3187 3188 3189 3190 3190 3191 3192 3192 3193 3193 3193 3194 3194 3195 3195 3195 3196 3196 3196 3196 3196 3195 3195 3195 3195 3195 3195 3195 3195 3195 3195 3195 3195 3195 3195 3194 3194 3193 3193 3193 3192 3192 3192 3192 3191 3191 3190 3190 3190 3189 3188 3187 3185 3183 3183 3183 3182
3181 3182 3183 3184 3186 3187 3187 3188 3189 3189 3190 3191 3191 3192 3192 3192 3193 3193 3194 3194 3195 3195 3195 3195 3195 3195 3195 3195 3195 3195 3195 3195 3195 3195 3195 3195 3195 3195 3195 3195 3194 3194 3193 3193 3192 3192 3191 3191 3191 3191 3190 3190 3190 3189 3189 3188 3187 3185 3183 3183 3183 3182
3180 3181 3183 3184 3185 3186 3187 3187 3188 3189 3189 3190 3190 3191 3191 3191 3191 3192 3193 3193 3194 3195 3195 3195 3195 3195 3195 3194 3194 3194 3194 3194 3194 3195 3195 3195 3194 3194 3194 3194 3194 3193 3193 3192 3192 3191 3191 3190 3190 3190 3190 3189 3189 3189 3188 3187 3186 3185 3184 3183 3182 3181
3180 3181 3182 3183 3184 3185 3186 3187 3187 3188 3188 3189 3189 3190 3190 3190 3190 3191 3192 3193 3193 3194 3194 3194 3194 3194 3194 3194 3194 3194 3194 3194 3194 3194 3194 3194 3194 3194 3194 3193 3193 3193 3192 3192 3192 3191 3190 3190 3190 3189 3189 3189 3189 3188 3188 3187 3186 3185 3183 3182 3182 3181
3179 3180 3182 3183 3184 3185 3185 3186 3187 3187 3187 3188 3188 3189 3189 3189 3190 3190 3191 3192 3192 3193 3193 3193 3193 3194 3194 3194 3193 3193 3193 3193 3193 3193 3193 3193 3193 3193 3193 3192 3192 3192 3192 3191 3191 3191 3190 3190 3189 3189 3188 3188 3188 3188 3187 3186 3186 3184 3183 3182 3181 3180
3179 3180 3181 3182 3183 3184 3185 3185 3186 3186 3187 3187 3187 3188 3188 3188 3189 3190 3190 3191 3191 3192 3192 3193 3193 3193 3193 3193 3193 3192 3192 3192 3192 3192 3192 3192 3192 3192 3192 3192 3191 3191 3191 3190 3190 3190 3189 3189 3188 3188 3188 3188 3187 3187 3187 3186 3185 3184 3182 3181 3180 3179
3178 3179 3180 3182 3183 3183 3184 3184 3185 3186 3186 3186 3186 3187 3187 3187 3188 3189 3189 3190 3191 3191 3191 3192 3192 3192 3192 3192 3192 3192 3192 3192 3192 3191 3191 3191 3191 3191 3191 3191 3191 3190 3190 3190 3189 3189 3189 3188 3188 3188 3188 3187 3187 3186 3186 3185 3184 3183 3181 3180 3179 3178
3177 3178 3180 3181 3182 3183 3183 3184 3184 3185 3185 3185 3185 3186 3186 3187 3187 3188 3189 3189 3190 3190 3190 3191 3191 3191 3191 3191 3191 3191 3191 3191 3191 3191 3191 3191 3191 3190 3190 3190 3190 3190 3189 3189 3189 3189 3188 3188 3187 3187 3187 3187 3186 3186 3185 3184 3182 3181 3180 3179 3178 3176
3177 3178 3179 3180 3181 3182 3183 3183 3183 3184 3184 3184 3184 3185 3185 3186 3187 3187 3188 3188 3188 3189 3189 3190 3190 3190 3190 3190 3190 3190 3190 3190 3190 3190 3190 3190 3190 3189 3189 3190 3189 3189 3189 3189 3188 3188 3188 3187 3187 3187 3186 3186 3185 3184 3183 3182 3181 3180 3178 3177 3176 3175
3176 3177 3178 3179 3181 3182 3182 3182 3182 3183 3183 3183 3183 3184 3185 3185 3186 3186 3186 3186 3187 3188 3188 3188 3189 3189 3190 3190 3190 3189 3189 3189 3189 3189 3189 3189 3189 3189 3189 3189 3189 3188 3188 3188 3187 3187 3187 3186 3186 3185 3185 3185 3184 3183 3182 3181 3179 3178 3177 3176 3175 3174
3174 3175 3177 3179 3180 3180 3181 3181 3182 3182 3182 3182 3183 3183 3184 3184 3185 3185 3185 3186 3186 3187 3187 3187 3188 3189 3189 3189 3189 3189 3189 3189 3188 3189 3188 3188 3188 3188 3189 3188 3188 3188 3187 3187 3187 3186 3186 3185 3185 3184 3184 3183 3182 3181 3180 3179 3178 3177 3176 3175 3174 3173
3172 3174 3176 3178 3179 3179 3180 3181 3181 3182 3182 3182 3182 3182 3183 3183 3184 3184 3185 3185 3186 3186 3186 3187 3187 3188 3188 3188 3188 3188 3188 3188 3188 3188 3188 3188 3188 3188 3188 3187 3187 3187 3186 3186 3186 3185 3185 3184 3184 3183 3182 3181 3180 3179 3178 3177 3176 3175 3175 3174 3172 3171
3171 3173 3176 3177 3178 3178 3179 3180 3180 3181 3181 3181 3181 3182 3182 3182 3183 3183 3184 3185 3185 3185 3186 3186 3186 3187 3187 3187 3187 3187 3187 3187 3187 3187 3187 3187 3187 3187 3186 3186 3186 3186 3185 3185 3185 3184 3184 3183 3182 3182 3181 3179 3178 3177 3176 3176 3175 3174 3173 3172 3171 3169
3170 3173 3175 3176 3176 3176 3177 3179 3179 3179 3180 3180 3181 3181 3181 3181 3182 3182 3183 3183 3184 3184 3185 3185 3185 3186 3186 3186 3186 3186 3187 3187 3186 3186 3186 3186 3186 3186 3185 3185 3185 3185 3185 3184 3183 3183 3182 3182 3181 3180 3179 3178 3177 3176 3175 3174 3173 3172 3171 3170 3169 3168
3170 3172 3173 3173 3175 3176 3177 3177 3178 3178 3178 3179 3179 3180 3180 3180 3180 3181 3181 3182 3183 3183 3184 3184 3184 3185 3185 3185 3185 3186 3186 3185 3185 3185 3185 3185 3185 3185 3185 3184 3184 3184 3184 3183 3182 3182 3181 3180 3179 3178 3177 3176 3175 3174 3173 3172 3171 3171 3169 3168 3167 3165
3169 3171 3171 3172 3174 3175 3175 3176 3176 3177 3177 3177 3178 3178 3178 3178 3179 3179 3179 3180 3181 3182 3182 3183 3183 3184 3184 3185 3185 3185 3185 3184 3184 3184 3184 3184 3184 3184 3184 3183 3183 3183 3183 3182 3181 3181 3180 3179 3178 3176 3175 3174 3173 3172 3171 3170 3170 3169 3167 3166 3165 3163
3168 3170 3170 3171 3173 3174 3174 3174 3175 3175 3175 3175 3175 3176 3176 3177 3178 3177 3177 3178 3180 3181 3181 3182 3182 3183 3183 3184 3184 3184 3184 3183 3183 3183 3183 3183 3183 3183 3183 3182 3182 3182 3182 3181 3180 3179 3178 3177 3176 3175 3174 3173 3172 3171 3170 3169 3168 3167 3165 3164 3163 3162
3166 3167 3168 3170 3171 3172 3173 3173 3173 3174 3174 3173 3173 3174 3174 3175 3176 3176 3175 3177 3179 3180 3180 3181 3181 3182 3182 3182 3183 3182 3182 3182 3182 3182 3182 3182 3182 3182 3182 3181 3181 3181 3180 3180 3179 3178 3177 3175 3174 3173 3172 3171 3170 3169 3168 3167 3166 3165 3164 3163 3161 3160
3164 3166 3167 3169 3170 3170 3170 3170 3171 3172 3172 3171 3172 3172 3172 3172 3174 3173 3174 3176 3178 3178 3179 3180 3180 3181 3181 3181 3181 3181 3181 3181 3181 3181 3181 3181 3181 3181 3181 3180 3180 3179 3179 3178 3177 3176 3175 3174 3173 3172 3171 3170 3168 3167 3166 3165 3164 3164 3163 3161 3160 3158
3162 3164 3166 3167 3167 3167 3167 3168 3169 3170 3171 3170 3170 3170 3171 3171 3171 3171 3173 3175 3176 3177 3178 3178 3179 3180 3180 3180 3180 3180 3180 3180 3180 3180 3180 3180 3180 3180 3180 3179 3179 3178 3177 3176 3175 3174 3173 3172 3172 3171 3170 3169 3168 3166 3165 3164 3163 3162 3161 3160 3159 3157
3159 3162 3164 3164 3164 3164 3166 3167 3168 3168 3169 3170 3169 3169 3170 3171 3170 3171 3173 3174 3175 3176 3176 3177 3178 3178 3179 3179 3179 3179 3179 3179 3180 3180 3180 3180 3179 3179 3179 3178 3177 3176 3175 3174 3173 3172 3171 3170 3170 3169 3168 3168 3167 3165 3164 3163 3162 3161 3160 3159 3157 3155
3157 3160 3161 3161 3161 3163 3164 3165 3166 3166 3167 3168 3168 3168 3169 3170 3170 3172 3173 3173 3173 3174 3175 3176 3177 3177 3177 3177 3178 3178 3178 3179 3179 3179 3179 3178 3178 3178 3177 3176 3175 3174 3173 3172 3171 3170 3169 3169 3168 3167 3167 3166 3165 3164 3163 3162 3161 3159 3158 3157 3155 3154
3155 3158 3159 3159 3160 3162 3162 3163 3163 3164 3164 3165 3166 3167 3168 3169 3170 3170 3171 3171 3172 3173 3174 3175 3175 3176 3176 3176 3177 3177 3177 3177 3177 3177 3177 3177 3177 3176 3175 3175 3174 3173 3172 3171 3170 3169 3168 3167 3167 3166 3165 3165 3164 3163 3162 3161 3159 3158 3156 3155 3154 3152
3152 3155 3157 3158 3159 3160 3161 3161 3162 3162 3163 3163 3164 3165 3166 3167 3168 3168 3169 3170 3171 3172 3173 3173 3174 3174 3175 3175 3176 3176 3176 3176 3176 3176 3176 3175 3175 3174 3174 3173 3172 3171 3170 3170 3169 3168 3167 3167 3166 3165 3164 3164 3163 3162 3161 3159 3158 3156 3155 3153 3151 3150
3149 3152 3155 3156 3158 3158 3159 3159 3160 3161 3162 3162 3163 3163 3164 3165 3166 3167 3168 3169 3170 3170 3171 3172 3172 3173 3173 3174 3174 3174 3175 3175 3174 3174 3174 3173 3173 3172 3172 3171 3170 3170 3169 3169 3168 3167 3166 3166 3165 3164 3163 3163 3162 3160 3159 3158 3156 3155 3153 3151 3149 3148
3147 3150 3153 3155 3156 3156 3157 3158 3159 3160 3160 3161 3162 3162 3162 3163 3165 3166 3167 3168 3168 3169 3170 3170 3171 3171 3172 3172 3173 3173 3173 3173 3173 3172 3172 3172 3171 3171 3170 3169 3169 3168 3168 3167 3166 3166 3165 3165 3164 3163 3162 3161 3160 3159 3158 3157 3155 3154 3152 3151 3149 3147
3147 3149 3152 3153 3154 3154 3155 3157 3158 3159 3159 3160 3160 3160 3161 3162 3164 3165 3165 3166 3167 3168 3168 3169 3169 3170 3170 3171 3171 3171 3171 3171 3171 3170 3170 3170 3169 3169 3168 3168 3167 3166 3166 3165 3165 3165 3164 3163 3162 3162 3161 3160 3159 3158 3157 3155 3154 3153 3151 3150 3148 3146
3146 3148 3150 3151 3152 3152 3153 3155 3156 3157 3158 3158 3158 3159 3160 3161 3163 3163 3164 3165 3165 3166 3167 3167 3168 3168 3169 3169 3170 3170 3169 3169 3169 3168 3168 3168 3167 3167 3166 3166 3165 3165 3164 3164 3163 3163 3162 3162 3161 3160 3159 3158 3157 3156 3155 3154 3153 3152 3150 3149 3148 3146
3144 3146 3148 3149 3150 3150 3151 3152 3153 3154 3156 3157 3157 3158 3159 3160 3161 3162 3162 3163 3164 3165 3165 3166 3166 3167 3167 3167 3168 3167 3167 3167 3167 3166 3166 3166 3165 3165 3164 3164 3163 3163 3163 3162 3162 3161 3161 3160 3159 3159 3158 3157 3156 3155 3154 3153 3152 3151 3150 3148 3147 3145
3143 3145 3146 3147 3148 3149 3150 3151 3151 3153 3154 3156 3157 3158 3159 3159 3160 3161 3161 3162 3163 3163 3164 3164 3165 3165 3165 3166 3166 3165 3165 3165 3165 3165 3165 3164 3163 3163 3162 3162 3162 3161 3161 3161 3160 3160 3159 3158 3158 3157 3156 3155 3154 3153 3152 3151 3151 3150 3148 3147 3145 3144
3142 3145 3146 3146 3147 3148 3148 3149 3150 3151 3153 3154 3155 3156 3157 3158 3159 3160 3160 3161 3161 3162 3162 3163 3163 3163 3164 3164 3164 3164 3163 3163 3163 3163 3163 3162 3161 3161 3161 3160 3160 3160 3160 3159 3159 3158 3158 3157 3156 3156 3155 3154 3153 3152 3151 3150 3149 3148 3147 3146 3144 3142
3140 3142 3145 3145 3146 3147 3147 3148 3149 3150 3151 3152 3153 3155 3156 3157 3158 3158 3159 3159 3160 3160 3160 3161 3161 3162 3162 3162 3162 3162 3162 3162 3161 3161 3161 3160 3160 3159 3159 3159 3159 3158 3158 3158 3157 3157 3156 3156 3155 3154 3154 3153 3152 3151 3150 3149 3148 3147 3146 3144 3142 3141